Location: Felsheim
(48.7267°N, 10.7386°E)
Time: 08:13:31
(UTC+00:00)

SPOT 1/Viking Rocket - Pass Details

Date: 09 April 2020
Orbit: 776 x 795 km, 98.5° (Epoch: 24 May)

Event Time Altitude Azimuth Distance (km) Brightness Sun altitude
Exits shadow 19:50:06 29° 114° (ESE) 1,423 4.3 -17.3°
Maximum altitude 19:52:07 42° 66° (ENE) 1,134 4.1 -17.6°
Drops below altitude 10° 19:57:01 10° 358° (N) 2,377 6.6 -18.2°
Sets 19:59:28 0° 351° (N) 3,311 7.5 -18.5°
